Redmond, OR

7:43 AM PDT on March 26, 2017 (GMT -0700)
Roberts Field Airport

Weather History for KRDM - May, 2013

Change the Weather History Date:

Thursday, May 9, 2013

  Actual Average Record
Temperature  
Mean Temperature 63 °F 50 °F  
Max Temperature 85 °F 66 °F 85 °F (1987)
Min Temperature 41 °F 34 °F 21 °F (2008)
Degree Days  
Heating Degree Days 2 15  
Month to date heating degree days 82 149  
Since 1 July heating degree days 5928 6220  
Cooling Degree Days 0 0  
Month to date cooling degree days 0 0  
Year to date cooling degree days 0 0  
Growing Degree Days 14 (Base 50)    
Moisture  
Dew Point 42 °F    
Average Humidity 53    
Maximum Humidity 89    
Minimum Humidity 17    
Precipitation  
Precipitation 0.00 in 0.03 in 0.28 in (1961)
Month to date precipitation T 0.26  
Year to date precipitation 0.85 3.27  
Sea Level Pressure  
Sea Level Pressure 30.09 in    
Wind  
Wind Speed 5 mph (SSE)    
Max Wind Speed 28 mph    
Max Gust Speed 35 mph    
Visibility 10 miles    
Events      
T = Trace of Precipitation, MM = Missing Value Source: NWS Daily Summary

Daily Weather History Graph

Daily Weather History Graph

Search for Another Location

Airport or City:

Trip Planner

Search our weather history database for the weather conditions in past years. The results will help you decide how hot, cold, wet, or windy it might be!

Date:

Astronomy

May. 09, 2013 Rise Set
Actual Time 5:44 AM PDT 8:18 PM PDT
Civil Twilight 5:11 AM PDT 8:51 PM PDT
Nautical Twilight 4:30 AM PDT 9:32 PM PDT
Astronomical Twilight 3:43 AM PDT 10:19 PM PDT
Moon 5:33 AM PDT (5/9) 8:18 PM PDT (5/9)
Length of Visible Light 15h 39m
Length of Day
14h 33m
Waning Crescent, 0% of the Moon is Illuminated
May 9
Waning Crescent
May 9
New
May 17
First Quarter
May 24
Full
May 31
Last Quarter

Hourly Weather History & Observations

Time (PDT) Temp. Windchill Dew Point Humidity Pressure Visibility Wind Dir Wind Speed Gust Speed Precip Events Conditions
12:56 AM 55.0 °F - 45.0 °F 69% 30.07 in 10.0 mi SSW 6.9 mph - N/A   Clear
1:56 AM 51.1 °F - 44.1 °F 77% 30.08 in 10.0 mi Calm Calm - N/A   Clear
2:56 AM 45.0 °F - 41.0 °F 86% 30.09 in 10.0 mi Calm Calm - N/A   Clear
3:56 AM 50.0 °F - 44.1 °F 80% 30.09 in 10.0 mi East 4.6 mph - N/A   Clear
4:56 AM 45.0 °F 42.6 °F 41.0 °F 86% 30.09 in 10.0 mi SSE 4.6 mph - N/A   Clear
5:56 AM 44.1 °F 42.5 °F 39.9 °F 85% 30.12 in 10.0 mi East 3.5 mph - N/A   Clear
6:56 AM 48.9 °F - 42.1 °F 77% 30.13 in 10.0 mi SSE 3.5 mph - N/A   Clear
7:56 AM 57.0 °F - 44.1 °F 62% 30.12 in 10.0 mi South 4.6 mph - N/A   Clear
8:56 AM 63.0 °F - 44.1 °F 50% 30.10 in 10.0 mi Calm Calm - N/A   Clear
9:56 AM 69.1 °F - 43.0 °F 39% 30.10 in 10.0 mi Calm Calm - N/A   Clear
10:56 AM 73.9 °F - 42.1 °F 32% 30.09 in 10.0 mi SW 3.5 mph - N/A   Clear
11:56 AM 78.1 °F - 39.9 °F 25% 30.09 in 10.0 mi WNW 9.2 mph - N/A   Clear
12:56 PM 80.1 °F - 39.0 °F 23% 30.07 in 10.0 mi SE 6.9 mph - N/A   Clear
1:56 PM 82.0 °F - 39.9 °F 22% 30.05 in 10.0 mi WNW 9.2 mph 17.3 mph N/A   Clear
2:56 PM 82.0 °F - 37.9 °F 21% 30.05 in 10.0 mi NNW 9.2 mph 18.4 mph N/A   Clear
3:56 PM 82.9 °F - 37.0 °F 19% 30.02 in 10.0 mi North 13.8 mph - N/A   Clear
4:56 PM 84.0 °F - 35.1 °F 17% 30.04 in 10.0 mi NNE 10.4 mph 17.3 mph N/A   Scattered Clouds
5:39 PM 71.6 °F - 39.2 °F 31% 30.13 in 8.0 mi SSE 23.0 mph 34.5 mph N/A   Partly Cloudy
5:56 PM 70.0 °F - 43.0 °F 38% 30.11 in 10.0 mi South 19.6 mph 31.1 mph N/A   Scattered Clouds
6:56 PM 68.0 °F - 45.0 °F 43% 30.12 in 10.0 mi SE 4.6 mph - N/A   Mostly Cloudy
7:56 PM 69.1 °F - 43.0 °F 39% 30.09 in 10.0 mi SW 5.8 mph - N/A   Clear
8:56 PM 63.0 °F - 43.0 °F 48% 30.11 in 10.0 mi NNE 3.5 mph - N/A   Clear
9:56 PM 57.0 °F - 43.0 °F 59% 30.12 in 10.0 mi South 4.6 mph - N/A   Clear
10:56 PM 57.0 °F - 44.1 °F 62% 30.12 in 10.0 mi Calm Calm - N/A   Clear
11:56 PM 54.0 °F - 44.1 °F 69% 30.13 in 10.0 mi South 6.9 mph - N/A   Clear